WZZ324 LHBP-EPKK

Flight info

Callsign WZZ324
Flight time 1h 2m
Altitude 20000
Route LITKU Y301 KALIF DCT MEBAN
Aircraft A21N/M-SDE2E3FGHIRWXY/LB1

Departure

Time 2026-05-07 17:05
Airport Budapest Liszt Ferenc International Airport (LHBP)

Arrival

Time 2026-05-07 18:07
Airport Kraków John Paul II International Airport (EPKK)
Time Latitude Longitude Altitude Speed Heading
2026-05-07 16:39 47.43357 19.26714 463 ft 0 kts 222°
2026-05-07 16:59 47.43356 19.26713 463 ft 1 kts 222°
2026-05-07 16:59 47.43339 19.26689 461 ft 6 kts 224°
2026-05-07 16:59 47.43285 19.26705 462 ft 12 kts 139°
2026-05-07 17:00 47.43251 19.26826 463 ft 16 kts 68°
2026-05-07 17:00 47.43296 19.26985 462 ft 18 kts 68°
2026-05-07 17:00 47.43350 19.27085 463 ft 12 kts
2026-05-07 17:00 47.43423 19.27007 464 ft 14 kts 314°
2026-05-07 17:01 47.43495 19.26894 464 ft 16 kts 312°
2026-05-07 17:01 47.43572 19.26767 464 ft 17 kts 312°
2026-05-07 17:01 47.43658 19.26629 463 ft 19 kts 312°
2026-05-07 17:01 47.43749 19.26483 463 ft 20 kts 312°
2026-05-07 17:02 47.43846 19.26327 462 ft 21 kts 313°
2026-05-07 17:02 47.43910 19.26153 463 ft 21 kts 236°
2026-05-07 17:02 47.43803 19.26003 463 ft 22 kts 222°
2026-05-07 17:02 47.43688 19.25848 463 ft 23 kts 222°
2026-05-07 17:03 47.43592 19.25719 463 ft 17 kts 222°
2026-05-07 17:03 47.43501 19.25597 463 ft 18 kts 222°
2026-05-07 17:03 47.43402 19.25464 463 ft 20 kts 222°
2026-05-07 17:03 47.43298 19.25326 463 ft 21 kts 222°
2026-05-07 17:04 47.43188 19.25177 463 ft 22 kts 222°
2026-05-07 17:04 47.43084 19.25038 462 ft 14 kts 222°
2026-05-07 17:04 47.43078 19.24975 463 ft 8 kts 316°
2026-05-07 17:04 47.43145 19.24864 462 ft 38 kts 313°
2026-05-07 17:05 47.43502 19.24293 456 ft 111 kts 313°
2026-05-07 17:05 47.44142 19.23262 459 ft 162 kts 313°
2026-05-07 17:05 47.44935 19.21997 960 ft 163 kts 310°
2026-05-07 17:05 47.45682 19.20727 1603 ft 165 kts 309°
2026-05-07 17:06 47.46476 19.19417 2102 ft 176 kts 310°
2026-05-07 17:06 47.47334 19.18042 2617 ft 188 kts 310°
2026-05-07 17:06 47.48265 19.16570 3149 ft 204 kts 314°
2026-05-07 17:06 47.49536 19.15507 3671 ft 221 kts 342°
2026-05-07 17:07 47.51094 19.15087 4228 ft 237 kts 349°
2026-05-07 17:07 47.52809 19.14732 4647 ft 260 kts 355°
2026-05-07 17:07 47.54638 19.15263 5184 ft 278 kts 28°
2026-05-07 17:07 47.56250 19.16896 5971 ft 284 kts 37°
2026-05-07 17:08 47.57846 19.18686 6736 ft 291 kts 37°
2026-05-07 17:08 47.59466 19.20462 7512 ft 295 kts 36°
2026-05-07 17:08 47.61135 19.22261 8307 ft 299 kts 36°
2026-05-07 17:08 47.62835 19.24070 9118 ft 302 kts 36°
2026-05-07 17:09 47.64559 19.25895 9911 ft 306 kts 36°
2026-05-07 17:09 47.66334 19.27769 10397 ft 320 kts 36°
2026-05-07 17:09 47.68201 19.29743 10705 ft 339 kts 36°
2026-05-07 17:09 47.70179 19.31857 11013 ft 359 kts 38°
2026-05-07 17:10 47.72083 19.34336 11289 ft 377 kts 44°
2026-05-07 17:10 47.74017 19.37066 11759 ft 387 kts 44°
2026-05-07 17:10 47.75982 19.39846 12472 ft 392 kts 44°
2026-05-07 17:10 47.77969 19.42644 13195 ft 395 kts 44°
2026-05-07 17:11 47.79994 19.45454 13887 ft 400 kts 41°
2026-05-07 17:11 47.82319 19.47761 14485 ft 404 kts 24°
2026-05-07 17:11 47.85012 19.48998 15113 ft 407 kts 10°
2026-05-07 17:11 47.86865 19.49524 15506 ft 409 kts
2026-05-07 17:12 47.89675 19.50275 16100 ft 414 kts
2026-05-07 17:12 47.93458 19.51307 16897 ft 419 kts
2026-05-07 17:12 47.96339 19.52118 17506 ft 423 kts
2026-05-07 17:12 47.99250 19.52953 18100 ft 428 kts
2026-05-07 17:13 48.01234 19.53525 18475 ft 431 kts
2026-05-07 17:13 48.04154 19.54371 18996 ft 434 kts
2026-05-07 17:13 48.07130 19.55231 19523 ft 438 kts
2026-05-07 17:13 48.10140 19.56103 19902 ft 442 kts
2026-05-07 17:14 48.13134 19.56971 20006 ft 429 kts
2026-05-07 17:14 48.16064 19.57821 20015 ft 427 kts
2026-05-07 17:14 48.18987 19.58668 20013 ft 427 kts
2026-05-07 17:14 48.21905 19.59488 20003 ft 427 kts
2026-05-07 17:15 48.24862 19.59716 19998 ft 424 kts 355°
2026-05-07 17:15 48.27770 19.59443 20002 ft 424 kts 353°
2026-05-07 17:15 48.30743 19.59134 20007 ft 431 kts 354°
2026-05-07 17:15 48.33733 19.58829 20001 ft 431 kts 354°
2026-05-07 17:16 48.36732 19.58530 19999 ft 431 kts 354°
2026-05-07 17:16 48.39730 19.58235 19997 ft 431 kts 354°
2026-05-07 17:16 48.42733 19.57944 19996 ft 432 kts 354°
2026-05-07 17:16 48.45732 19.57654 19998 ft 432 kts 354°
2026-05-07 17:17 48.48737 19.57362 19999 ft 431 kts 354°
2026-05-07 17:17 48.51738 19.57222 19998 ft 433 kts 360°
2026-05-07 17:17 48.54747 19.57431 19999 ft 433 kts
2026-05-07 17:17 48.57764 19.57696 20000 ft 433 kts
2026-05-07 17:18 48.60737 19.57949 19999 ft 433 kts
2026-05-07 17:18 48.63751 19.58195 20000 ft 433 kts
2026-05-07 17:18 48.66767 19.58432 20003 ft 433 kts
2026-05-07 17:18 48.69787 19.58667 20000 ft 433 kts
2026-05-07 17:19 48.72759 19.58897 20004 ft 433 kts
2026-05-07 17:19 48.75761 19.59133 20003 ft 432 kts
2026-05-07 17:19 48.78775 19.59369 20005 ft 432 kts
2026-05-07 17:19 48.81776 19.59601 20007 ft 432 kts
2026-05-07 17:20 48.84785 19.59833 20020 ft 433 kts
2026-05-07 17:20 48.87804 19.60070 20016 ft 433 kts
2026-05-07 17:20 48.90814 19.60307 20010 ft 433 kts
2026-05-07 17:20 48.93830 19.60545 20006 ft 433 kts
2026-05-07 17:21 48.96834 19.60780 19997 ft 433 kts
2026-05-07 17:21 48.99857 19.61018 20009 ft 433 kts
2026-05-07 17:21 49.02824 19.61251 20001 ft 432 kts
2026-05-07 17:21 49.05835 19.61486 20003 ft 433 kts
2026-05-07 17:22 49.08845 19.61723 20001 ft 433 kts
2026-05-07 17:22 49.11858 19.61961 20002 ft 433 kts
2026-05-07 17:22 49.14872 19.62199 19996 ft 433 kts
2026-05-07 17:22 49.17881 19.62438 20001 ft 433 kts
2026-05-07 17:23 49.20889 19.62677 19999 ft 433 kts
2026-05-07 17:23 49.23895 19.62918 19985 ft 432 kts
2026-05-07 17:23 49.26911 19.63160 19994 ft 433 kts
2026-05-07 17:23 49.29922 19.63402 19992 ft 433 kts
2026-05-07 17:24 49.32941 19.63641 19998 ft 433 kts
2026-05-07 17:24 49.35962 19.63880 20000 ft 432 kts
2026-05-07 17:24 49.38933 19.64117 19992 ft 432 kts
2026-05-07 17:24 49.41913 19.64374 19632 ft 424 kts
2026-05-07 17:25 49.44794 19.65275 18952 ft 423 kts 20°
2026-05-07 17:25 49.47355 19.67447 18298 ft 420 kts 39°
2026-05-07 17:25 49.49421 19.70585 17618 ft 415 kts 49°
2026-05-07 17:25 49.51306 19.73847 16978 ft 410 kts 50°
2026-05-07 17:26 49.53211 19.77099 16363 ft 406 kts 49°
2026-05-07 17:26 49.55119 19.80274 15750 ft 402 kts 48°
2026-05-07 17:26 49.57019 19.83397 15175 ft 398 kts 48°
2026-05-07 17:26 49.58902 19.86485 14603 ft 393 kts 48°
2026-05-07 17:27 49.60772 19.89556 14054 ft 389 kts 48°
2026-05-07 17:27 49.62613 19.92577 13541 ft 383 kts 48°
2026-05-07 17:27 49.64429 19.95560 12931 ft 377 kts 48°
2026-05-07 17:27 49.66219 19.98494 12276 ft 373 kts 47°
2026-05-07 17:28 49.67965 20.01354 11643 ft 369 kts 47°
2026-05-07 17:28 49.69696 20.04198 11243 ft 355 kts 47°
2026-05-07 17:28 49.71353 20.06926 10938 ft 340 kts 47°
2026-05-07 17:28 49.72938 20.09542 10611 ft 326 kts 47°
2026-05-07 17:29 49.74458 20.12054 10312 ft 313 kts 46°
2026-05-07 17:29 49.75950 20.14419 10030 ft 302 kts 40°
2026-05-07 17:29 49.77737 20.15982 9571 ft 294 kts 13°
2026-05-07 17:29 49.79719 20.16145 9095 ft 286 kts 346°
2026-05-07 17:30 49.81528 20.14989 8594 ft 280 kts 323°
2026-05-07 17:30 49.83072 20.13165 8144 ft 277 kts 318°
2026-05-07 17:30 49.84570 20.11301 7721 ft 276 kts 319°
2026-05-07 17:30 49.86076 20.09459 7361 ft 274 kts 319°
2026-05-07 17:31 49.87584 20.07640 7156 ft 273 kts 320°
2026-05-07 17:31 49.89079 20.05856 6765 ft 270 kts 320°
2026-05-07 17:31 49.90567 20.04089 6364 ft 269 kts 320°
2026-05-07 17:31 49.92091 20.02419 5938 ft 269 kts 329°
2026-05-07 17:32 49.93847 20.01493 5520 ft 270 kts 346°
2026-05-07 17:32 49.95675 20.00971 5310 ft 261 kts 348°
2026-05-07 17:32 49.97428 20.00491 5156 ft 250 kts 347°
2026-05-07 17:32 49.99105 20.00058 4993 ft 238 kts 349°
2026-05-07 17:33 50.00709 19.99979 4951 ft 230 kts 13°
2026-05-07 17:33 50.02064 20.01277 4971 ft 236 kts 52°
2026-05-07 17:33 50.02681 20.03621 5003 ft 238 kts 82°
2026-05-07 17:33 50.02868 20.06150 5011 ft 238 kts 85°
2026-05-07 17:34 50.03063 20.08646 5037 ft 228 kts 83°
2026-05-07 17:34 50.03307 20.11091 5062 ft 228 kts 81°
2026-05-07 17:34 50.03586 20.13514 5044 ft 228 kts 80°
2026-05-07 17:34 50.03878 20.15929 5028 ft 227 kts 79°
2026-05-07 17:35 50.04170 20.18333 5019 ft 226 kts 79°
2026-05-07 17:35 50.04458 20.20740 5015 ft 226 kts 79°
2026-05-07 17:35 50.04746 20.23154 5016 ft 226 kts 79°
2026-05-07 17:35 50.05033 20.25560 5019 ft 226 kts 79°
2026-05-07 17:36 50.05320 20.27963 5021 ft 227 kts 79°
2026-05-07 17:36 50.05608 20.30377 5023 ft 226 kts 79°
2026-05-07 17:36 50.05894 20.32777 5030 ft 226 kts 79°
2026-05-07 17:36 50.06182 20.35194 5032 ft 226 kts 79°
2026-05-07 17:37 50.06761 20.37446 5013 ft 225 kts 52°
2026-05-07 17:37 50.07926 20.38971 5026 ft 222 kts 24°
2026-05-07 17:37 50.09404 20.39481 5027 ft 217 kts 356°
2026-05-07 17:37 50.10841 20.38905 5028 ft 212 kts 329°
2026-05-07 17:38 50.11927 20.37416 5027 ft 208 kts 303°
2026-05-07 17:38 50.12479 20.35369 5029 ft 205 kts 280°
2026-05-07 17:38 50.12677 20.33166 5033 ft 205 kts 275°
2026-05-07 17:38 50.12851 20.30962 5025 ft 205 kts 275°
2026-05-07 17:39 50.13036 20.28757 5024 ft 205 kts 277°
2026-05-07 17:39 50.13311 20.26567 5022 ft 206 kts 279°
2026-05-07 17:39 50.13486 20.24383 5022 ft 205 kts 273°
2026-05-07 17:39 50.13495 20.22156 5022 ft 205 kts 267°
2026-05-07 17:40 50.13371 20.19936 5025 ft 205 kts 263°
2026-05-07 17:40 50.13162 20.17737 5024 ft 205 kts 260°
2026-05-07 17:40 50.12908 20.15558 5023 ft 198 kts 258°
2026-05-07 17:40 50.12643 20.13578 4988 ft 172 kts 258°
2026-05-07 17:41 50.12408 20.11859 4848 ft 162 kts 258°
2026-05-07 17:41 50.12172 20.10151 4653 ft 161 kts 258°
2026-05-07 17:41 50.11935 20.08446 4446 ft 161 kts 258°
2026-05-07 17:41 50.11698 20.06736 4230 ft 161 kts 258°
2026-05-07 17:42 50.11463 20.05045 4015 ft 158 kts 258°
2026-05-07 17:42 50.11230 20.03370 3806 ft 158 kts 258°
2026-05-07 17:42 50.10997 20.01694 3594 ft 158 kts 258°
2026-05-07 17:42 50.10765 20.00020 3385 ft 157 kts 258°
2026-05-07 17:43 50.10534 19.98358 3177 ft 157 kts 258°
2026-05-07 17:43 50.10303 19.96696 2962 ft 157 kts 258°
2026-05-07 17:43 50.10072 19.95029 2754 ft 156 kts 258°
2026-05-07 17:43 50.09856 19.93472 2541 ft 139 kts 258°
2026-05-07 17:44 50.09653 19.92011 2357 ft 137 kts 259°
2026-05-07 17:44 50.09453 19.90576 2177 ft 137 kts 258°
2026-05-07 17:44 50.09250 19.89114 1994 ft 139 kts 258°
2026-05-07 17:44 50.09042 19.87619 1799 ft 140 kts 258°
2026-05-07 17:45 50.08837 19.86139 1614 ft 141 kts 256°
2026-05-07 17:45 50.08631 19.84652 1425 ft 140 kts 256°
2026-05-07 17:45 50.08426 19.83156 1241 ft 141 kts 255°
2026-05-07 17:45 50.08215 19.81672 1042 ft 140 kts 256°
2026-05-07 17:46 50.08012 19.80184 938 ft 146 kts 258°
2026-05-07 17:46 50.07789 19.78636 1723 ft 145 kts 256°
2026-05-07 17:46 50.07561 19.77178 2280 ft 139 kts 256°
2026-05-07 17:46 50.07307 19.75641 2408 ft 154 kts 256°
2026-05-07 17:47 50.07033 19.73960 2686 ft 169 kts 256°
2026-05-07 17:47 50.06740 19.72067 3055 ft 190 kts 259°
2026-05-07 17:47 50.06513 19.69956 3560 ft 205 kts 260°
2026-05-07 17:47 50.06231 19.67701 4164 ft 218 kts 259°
2026-05-07 17:48 50.05916 19.65331 4722 ft 226 kts 258°
2026-05-07 17:48 50.05597 19.62929 4940 ft 226 kts 258°
2026-05-07 17:48 50.05285 19.60553 5014 ft 227 kts 258°
2026-05-07 17:48 50.04965 19.58116 5028 ft 227 kts 258°
2026-05-07 17:49 50.04650 19.55717 5029 ft 226 kts 258°
2026-05-07 17:49 50.04340 19.53342 5022 ft 227 kts 258°
2026-05-07 17:49 50.03901 19.51010 5010 ft 226 kts 240°
2026-05-07 17:49 50.02813 19.49265 5013 ft 229 kts 211°
2026-05-07 17:50 50.01266 19.48638 5014 ft 236 kts 180°
2026-05-07 17:50 49.99642 19.49118 5020 ft 239 kts 167°
2026-05-07 17:50 49.98045 19.49857 5019 ft 240 kts 166°
2026-05-07 17:50 49.96449 19.50617 5020 ft 240 kts 166°
2026-05-07 17:51 49.94852 19.51374 5025 ft 240 kts 166°
2026-05-07 17:51 49.93250 19.52128 5023 ft 240 kts 166°
2026-05-07 17:51 49.91667 19.52875 5022 ft 240 kts 166°
2026-05-07 17:51 49.90062 19.53629 5017 ft 240 kts 166°
2026-05-07 17:52 49.88465 19.54382 5019 ft 240 kts 162°
2026-05-07 17:52 49.87074 19.55825 5019 ft 245 kts 131°
2026-05-07 17:52 49.86302 19.58172 5023 ft 249 kts 101°
2026-05-07 17:52 49.86332 19.60846 5038 ft 250 kts 78°
2026-05-07 17:53 49.86709 19.63483 5035 ft 250 kts 76°
2026-05-07 17:53 49.87119 19.66083 5032 ft 251 kts 75°
2026-05-07 17:53 49.87529 19.68675 5030 ft 251 kts 76°
2026-05-07 17:53 49.87950 19.71334 5039 ft 251 kts 76°
2026-05-07 17:54 49.88366 19.73965 5034 ft 252 kts 76°
2026-05-07 17:54 49.88784 19.76622 5038 ft 252 kts 76°
2026-05-07 17:54 49.89198 19.79264 5036 ft 252 kts 76°
2026-05-07 17:54 49.89613 19.81920 5033 ft 252 kts 76°
2026-05-07 17:55 49.90020 19.84535 5037 ft 252 kts 76°
2026-05-07 17:55 49.90432 19.87181 5034 ft 253 kts 76°
2026-05-07 17:55 49.90845 19.89830 5037 ft 252 kts 76°
2026-05-07 17:55 49.91258 19.92473 5031 ft 252 kts 76°
2026-05-07 17:56 49.91673 19.95125 5033 ft 252 kts 76°
2026-05-07 17:56 49.92086 19.97764 5034 ft 251 kts 76°
2026-05-07 17:56 49.92501 20.00411 5028 ft 251 kts 76°
2026-05-07 17:56 49.92914 20.03046 5031 ft 251 kts 76°
2026-05-07 17:57 49.93322 20.05649 5029 ft 251 kts 76°
2026-05-07 17:57 49.93603 20.07436 5031 ft 251 kts 76°
2026-05-07 17:57 49.94151 20.10921 5028 ft 251 kts 76°
2026-05-07 17:57 49.94565 20.13554 5032 ft 251 kts 76°
2026-05-07 17:58 49.94845 20.15335 5032 ft 251 kts 76°
2026-05-07 17:58 49.95259 20.17970 5033 ft 251 kts 76°
2026-05-07 17:58 49.95709 20.20553 5026 ft 250 kts 65°
2026-05-07 17:58 49.96719 20.22701 5027 ft 248 kts 36°
2026-05-07 17:59 49.98168 20.24151 5037 ft 246 kts 27°
2026-05-07 17:59 49.99666 20.25439 5035 ft 246 kts 26°
2026-05-07 17:59 50.01175 20.26719 5035 ft 246 kts 26°
2026-05-07 17:59 50.02674 20.27989 5035 ft 245 kts 26°
2026-05-07 18:00 50.04172 20.29254 5032 ft 245 kts 26°
2026-05-07 18:00 50.05665 20.30514 5033 ft 244 kts 26°
2026-05-07 18:00 50.07200 20.31600 4964 ft 239 kts 11°
2026-05-07 18:00 50.08826 20.31644 4530 ft 232 kts 343°
2026-05-07 18:01 50.10259 20.30589 4136 ft 228 kts 317°
2026-05-07 18:01 50.11244 20.28730 4018 ft 226 kts 294°
2026-05-07 18:01 50.11671 20.26396 4009 ft 225 kts 274°
2026-05-07 18:01 50.11713 20.23961 4015 ft 225 kts 269°
2026-05-07 18:02 50.11759 20.19087 4031 ft 225 kts 271°
2026-05-07 18:02 50.11807 20.16651 4025 ft 225 kts 271°
2026-05-07 18:02 50.11865 20.14212 4033 ft 225 kts 272°
2026-05-07 18:03 50.11916 20.11777 4029 ft 225 kts 267°
2026-05-07 18:03 50.11446 20.09470 4024 ft 226 kts 242°
2026-05-07 18:03 50.10741 20.07294 4020 ft 226 kts 253°
2026-05-07 18:03 50.10452 20.04926 3871 ft 220 kts 264°
2026-05-07 18:04 50.10329 20.02605 3570 ft 209 kts 266°
2026-05-07 18:04 50.10227 20.00475 3402 ft 189 kts 266°
2026-05-07 18:04 50.10163 19.98498 3145 ft 178 kts 270°
2026-05-07 18:04 50.10177 19.96580 3008 ft 178 kts 270°
2026-05-07 18:05 50.10006 19.94669 2860 ft 178 kts 259°
2026-05-07 18:05 50.09762 19.92778 2823 ft 177 kts 259°
2026-05-07 18:05 50.09507 19.90877 2742 ft 179 kts 258°
2026-05-07 18:05 50.09205 19.89113 2472 ft 159 kts 255°
2026-05-07 18:06 50.08986 19.87517 2160 ft 146 kts 266°
2026-05-07 18:06 50.08834 19.86020 1807 ft 138 kts 257°
2026-05-07 18:06 50.08615 19.84557 1435 ft 140 kts 256°
2026-05-07 18:06 50.08417 19.83056 1196 ft 142 kts 255°
2026-05-07 18:07 50.08200 19.81566 1005 ft 140 kts 256°
2026-05-07 18:07 50.07997 19.80087 833 ft 139 kts 257°
2026-05-07 18:07 50.07806 19.78722 807 ft 109 kts 259°
2026-05-07 18:07 50.07690 19.77883 803 ft 45 kts 259°
2026-05-07 18:08 50.07622 19.77394 805 ft 47 kts 258°
2026-05-07 18:08 50.07556 19.76919 808 ft 19 kts 252°
2026-05-07 18:08 50.07538 19.76869 808 ft 8 kts 228°
2026-05-07 18:08 50.07481 19.76844 807 ft 11 kts 172°
2026-05-07 18:09 50.07405 19.76868 805 ft 12 kts 168°
2026-05-07 18:09 50.07320 19.76910 805 ft 14 kts 130°
2026-05-07 18:09 50.07321 19.77066 805 ft 16 kts 78°
2026-05-07 18:09 50.07346 19.77241 805 ft 17 kts 77°
2026-05-07 18:10 50.07373 19.77433 805 ft 19 kts 78°
2026-05-07 18:10 50.07402 19.77645 805 ft 21 kts 78°
2026-05-07 18:10 50.07433 19.77866 805 ft 22 kts 78°
2026-05-07 18:10 50.07467 19.78110 805 ft 23 kts 78°
2026-05-07 18:11 50.07503 19.78366 805 ft 25 kts 78°
2026-05-07 18:11 50.07527 19.78544 805 ft 26 kts 78°
2026-05-07 18:11 50.07570 19.78849 805 ft 19 kts 78°
2026-05-07 18:11 50.07599 19.79059 805 ft 21 kts 77°
2026-05-07 18:12 50.07631 19.79284 805 ft 22 kts 78°
2026-05-07 18:12 50.07664 19.79524 805 ft 23 kts 78°
2026-05-07 18:12 50.07700 19.79780 805 ft 25 kts 78°
2026-05-07 18:12 50.07643 19.79897 805 ft 4 kts 179°
2026-05-07 18:13 50.07606 19.79901 805 ft 6 kts 170°
2026-05-07 18:13 50.07576 19.79909 805 ft 0 kts 169°
2026-05-07 18:13 50.07575 19.79910 805 ft 2 kts 169°
2026-05-07 18:14 50.07548 19.79901 805 ft 6 kts 214°
2026-05-07 18:14 50.07538 19.79838 805 ft 7 kts 259°
2026-05-07 18:14 50.07535 19.79813 805 ft 0 kts 258°